If you wish to contribute or participate in the discussions about articles you are invited to join SKYbrary as a registered user

 Actions

Akure Airport

From SKYbrary Wiki

DNAK /
Revision as of 07:03, 1 July 2020 by Admin (talk | contribs) (Text replacement - "{{Show_Airportmaps}} " to "{{ShowAirportMap|TerrainZoom=10|AirportLayoutZoom=13}} ")
(diff) ← Older revision | Latest revision (diff) | Newer revision → (diff)
Airport
ICAO: DNAK – IATA: AKR
Summary
Name Akure Airport
Region Africa
Territory Nigeria NG.gif
Location Saribi, Ondo State
Serving Akure
Elevation 337.718 m <br />1,108 ft337.718 m <br />
Coordinates 7° 14' 55.00" N, 5° 18' 5.00" E
Runways
Designator Length Width Surface ROPS
3/21 2803 m9,196.194 ft <br /> 45 m147.638 ft <br /> ASP /


METAR
Observation DNAK 171300Z 02004KT 9999 BKN013 29/24 Q1011
Station Akure Airport
Date/Time 17 October 2021 13:00:00
Wind direction 20°
Wind speed 04 kts
Lowest cloud amount broken clouds
Temperature 29°C
Dew point 24°C
Humidity 74%
QNH 1011 hPa
Weather condition n/a

Akure Airport is an airport serving Akure, the capital of Ondo State, Nigeria.

Climatology

Tropical savanna climate (Köppen climate classification Aw)

Maps

Terrain

Loading map...

Airport Layout

Loading map...


Accidents & Serious Incidents at or in vicinity of DNAK

None on SKYbrary